KE9LZ-9 Weather Reports


Display with metric or nautical units.
time (UTC)temp
F
wind
direction
speed
MPH
gust
MPH
rain 1hr
in
rain 24hr
in
rain mn
in
humidity
%
barometer
mb
20260904210004 68 27 2.0 3.0 0.00 0.03 0.03 99 1014.4
20260904205004 68 17 1.0 3.0 0.00 0.03 0.03 99 1014.5
20260904203004 68 13 1.0 2.0 0.00 0.03 0.03 99 1014.7
20260904201004 68 80 1.0 3.0 0.00 0.03 0.03 99 1014.7
20260904200004 69 27 1.0 2.0 0.00 0.03 0.03 99 1014.9
20260904195004 69 14 1.0 2.0 0.00 0.03 0.03 99 1014.8
20260904194004 69 355 1.0 2.0 0.00 0.03 0.03 99 1014.8
20260904193004 69 9 1.0 2.0 0.00 0.03 0.03 99 1014.9
20260904192004 69 359 1.0 2.0 0.00 0.03 0.03 99 1014.9
20260904191004 70 13 0.0 2.0 0.00 0.03 0.03 99 1014.8
20260904190004 70 12 0.0 2.0 0.00 0.03 0.03 99 1014.7
20260904185004 71 13 0.0 2.0 0.00 0.03 0.03 99 1014.7
20260904184004 71 13 1.0 2.0 0.00 0.03 0.03 99 1014.7
20260904183004 72 350 0.0 2.0 0.00 0.03 0.03 98 1014.3
20260904182004 72 1 1.0 2.0 0.00 0.03 0.03 97 1014.4
20260904181004 72 357 1.0 2.0 0.00 0.03 0.03 97 1014.3
20260904180003 72 9 2.0 2.0 0.00 0.03 0.03 97 1014.4
20260904175003 72 187 0.0 2.0 0.00 0.03 0.03 97 1014.3
20260904174004 72 160 1.0 2.0 0.00 0.03 0.03 97 1014.5
20260904173004 71 0 1.0 2.0 0.00 0.03 0.03 98 1014.4
20260904172004 71 346 1.0 2.0 0.00 0.03 0.03 98 1014.3
20260904171004 71 345 1.0 2.0 0.00 0.03 0.03 98 1014.4
20260904170004 71 339 2.0 2.0 0.00 0.04 0.03 99 1014.4
20260904165003 70 351 2.0 3.0 0.00 0.04 0.03 99 1014.5
20260904164004 70 52 1.0 3.0 0.00 0.04 0.03 99 1014.7
20260904163004 70 4 1.0 3.0 0.00 0.04 0.03 99 1014.6
20260904162004 69 100 1.0 2.0 0.00 0.04 0.03 99 1014.7
20260904161004 68 347 2.0 2.0 0.00 0.04 0.03 99 1014.7
20260904160004 68 25 1.0 2.0 0.00 0.04 0.03 99 1014.6
20260904155003 67 79 1.0 2.0 0.00 0.04 0.03 99 1014.5
20260904154004 67 56 0.0 1.0 0.00 0.04 0.03 99 1014.5
20260904153004 67 73 1.0 2.0 0.00 0.04 0.03 99 1014.5
20260904152003 66 45 0.0 1.0 0.00 0.04 0.03 99 1014.6
20260904151004 66 351 1.0 2.0 0.00 0.04 0.03 99 1014.6
20260904145003 65 2 1.0 2.0 0.00 0.04 0.03 99 1014.4
20260904144003 65 12 1.0 2.0 0.01 0.04 0.03 99 1014.4
20260904143004 65 45 0.0 3.0 0.01 0.04 0.03 99 1014.5
20260904142004 64 3 1.0 2.0 0.01 0.04 0.03 99 1014.9
20260904141004 64 328 1.0 2.0 0.00 0.04 0.02 99 1015.0
20260904135004 64 357 2.0 3.0 0.00 0.04 0.02 99 1014.9
20260904133004 64 18 1.0 3.0 0.00 0.04 0.02 99 1015.1
20260904132004 64 50 1.0 3.0 0.00 0.04 0.02 99 1014.9
20260904131004 64 66 1.0 3.0 0.00 0.04 0.02 99 1014.9
20260904130004 63 22 1.0 2.0 0.00 0.04 0.02 99 1014.8
20260904125004 63 24 1.0 2.0 0.00 0.04 0.02 99 1014.6
20260904124003 63 348 0.0 3.0 0.00 0.04 0.02 99 1014.2
20260904123004 63 11 1.0 3.0 0.00 0.04 0.02 99 1014.1
20260904122004 63 7 1.0 3.0 0.00 0.04 0.02 99 1014.2
20260904121003 63 358 1.0 3.0 0.00 0.04 0.02 99 1014.4
20260904115004 64 9 1.0 3.0 0.00 0.04 0.02 99 1014.5
20260904114004 64 325 1.0 2.0 0.00 0.04 0.02 99 1014.3
20260904113004 64 356 1.0 2.0 0.00 0.04 0.02 99 1013.7
20260904112003 64 27 1.0 2.0 0.00 0.04 0.02 99 1013.6
20260904111004 64 321 0.0 2.0 0.00 0.04 0.02 99 1013.7
20260904110004 64 352 1.0 2.0 0.00 0.04 0.02 99 1013.9
20260904105004 63 26 1.0 3.0 0.00 0.04 0.02 99 1013.8
20260904104004 63 15 1.0 2.0 0.00 0.04 0.02 99 1013.7
20260904103004 63 39 1.0 2.0 0.00 0.04 0.02 99 1013.8
20260904101004 63 2 1.0 2.0 0.00 0.04 0.02 99 1014.2
20260904100004 63 13 1.0 3.0 0.00 0.04 0.02 99 1014.0
20260904095004 63 84 1.0 3.0 0.00 0.04 0.02 99 1014.3
20260904094004 63 40 2.0 3.0 0.00 0.04 0.02 99 1014.3
20260904093004 63 96 1.0 3.0 0.00 0.04 0.02 99 1014.6
20260904092004 62 23 1.0 3.0 0.00 0.04 0.02 99 1014.7
20260904091004 62 13 1.0 3.0 0.00 0.04 0.02 99 1014.4
20260904090004 63 39 1.0 3.0 0.00 0.04 0.02 99 1015.4
20260904083004 63 31 1.0 2.0 0.00 0.04 0.02 99 1014.7
20260904082004 63 23 1.0 2.0 0.00 0.04 0.02 99 1014.4
20260904081004 63 1 1.0 2.0 0.00 0.04 0.02 99 1014.1
20260904080004 63 6 1.0 2.0 0.00 0.04 0.02 99 1014.3
20260904075004 63 30 1.0 2.0 0.00 0.04 0.02 99 1014.4
20260904074004 63 344 1.0 2.0 0.00 0.04 0.02 99 1014.7
20260904073004 63 348 1.0 2.0 0.01 0.04 0.02 99 1014.5
20260904072004 63 288 1.0 2.0 0.01 0.04 0.02 99 1014.2
20260904070004 63 22 1.0 2.0 0.01 0.04 0.02 99 1014.1
20260904065004 63 5 1.0 2.0 0.01 0.04 0.02 99 1014.3
20260904064004 63 0 0.0 2.0 0.01 0.03 0.02 99 1014.3
20260904063003 63 350 1.0 2.0 0.01 0.02 0.01 99 1013.8
20260904062003 63 11 1.0 2.0 0.01 0.02 0.01 99 1013.5
20260904061004 64 19 0.0 3.0 0.01 0.02 0.01 99 1013.7
20260904055004 64 5 1.0 2.0 0.01 0.02 0.01 99 1014.8
20260904054004 64 53 1.0 2.0 0.00 0.02 0.00 99 1014.5
20260904053004 64 32 2.0 2.0 0.00 0.02 0.00 99 1014.7
20260904052003 64 28 1.0 2.0 0.00 0.02 0.00 99 1014.9
20260904051004 64 0 2.0 2.0 0.00 0.02 0.00 99 1014.7
20260904050004 64 13 1.0 2.0 0.00 0.02 0.00 99 1015.1
20260904045004 64 314 2.0 2.0 0.00 0.02 0.02 99 1015.0
20260904044004 64 23 1.0 2.0 0.00 0.02 0.02 99 1015.1
20260904043004 64 334 1.0 2.0 0.00 0.02 0.02 99 1015.3
20260904042004 64 339 1.0 1.0 0.00 0.02 0.02 99 1015.4
20260904041004 64 347 0.0 2.0 0.00 0.02 0.02 99 1015.4
20260904040004 64 315 0.0 2.0 0.00 0.02 0.02 99 1015.4
20260904035004 64 22 1.0 2.0 0.00 0.02 0.02 99 1015.2
20260904034003 64 17 1.0 2.0 0.00 0.02 0.02 99 1015.4
20260904033004 64 45 1.0 2.0 0.00 0.02 0.02 99 1014.9
20260904032004 64 46 1.0 2.0 0.00 0.02 0.02 99 1015.3
20260904031004 64 11 1.0 2.0 0.00 0.02 0.02 99 1015.2
20260904025004 64 341 1.0 2.0 0.00 0.02 0.02 99 1015.6
20260904024005 64 34 0.0 2.0 0.00 0.02 0.02 99 1015.4
20260904023003 64 303 1.0 2.0 0.00 0.02 0.02 99 1015.7
20260904022004 64 21 0.0 1.0 0.00 0.02 0.02 99 1015.5
20260904021003 65 24 1.0 1.0 0.00 0.02 0.02 99 1015.1
20260904020004 65 0 0.0 1.0 0.00 0.02 0.02 99 1015.4
20260904015004 65 355 1.0 1.0 0.00 0.02 0.02 99 1015.5
20260904014004 65 359 0.0 1.0 0.00 0.02 0.02 99 1015.6
20260904013004 66 11 1.0 1.0 0.00 0.02 0.02 99 1015.4
20260904011004 66 312 0.0 1.0 0.00 0.02 0.02 98 1015.3
20260904005003 67 355 0.0 1.0 0.00 0.02 0.02 97 1014.9
20260904004004 67 29 0.0 1.0 0.00 0.02 0.02 97 1014.8
20260904002004 68 11 0.0 2.0 0.00 0.02 0.02 95 1015.0
20260903235003 69 73 1.0 2.0 0.00 0.02 0.02 93 1014.6
20260903234004 69 267 1.0 3.0 0.00 0.02 0.02 93 1014.6
20260903233003 70 48 1.0 2.0 0.00 0.02 0.02 91 1014.6
20260903232004 70 344 0.0 2.0 0.00 0.02 0.02 91 1014.7
20260903231004 71 315 0.0 2.0 0.00 0.02 0.02 89 1014.7
20260903230003 71 12 0.0 2.0 0.00 0.02 0.02 89 1014.6
20260903224004 71 10 1.0 2.0 0.00 0.02 0.02 87 1014.1
20260903223003 72 6 1.0 3.0 0.00 0.02 0.02 88 1014.2
20260903222003 72 103 2.0 3.0 0.00 0.02 0.02 84 1014.2
20260903221003 73 29 2.0 3.0 0.00 0.02 0.02 84 1014.3
20260903220004 72 109 1.0 3.0 0.00 0.02 0.02 87 1014.5
20260903215004 73 68 1.0 3.0 0.00 0.02 0.02 86 1014.5
20260903214004 73 81 2.0 3.0 0.00 0.02 0.02 87 1014.4
20260903212004 72 48 2.0 3.0 0.00 0.02 0.02 88 1014.2
20260903211003 72 311 2.0 3.0 0.00 0.02 0.02 89 1014.5